Wetbulb
71.36 71.66 70.85 72.12 72.36 72.02 71.83 72.36 71.87 72.75 71.86 70.37 71.55 72.66 73.25 73.48 73.60 73.09 72.53 72.67 72.25 71.78 71.65 71.94 71.69 72.14 71.99 72.16 71.22 71.44 70.45 70.19 66.57 68.00 70.00 72.46 72.95 70.97 72.72 70.93 69.27 65.91 65.17
72.19 71.72 70.91 71.62 71.96 71.76 72.45 72.93 72.21 72.78 73.20 73.10 73.22 72.96 72.83 73.08 73.15 72.61 71.87 72.15 72.45 72.36 72.25 71.90 71.89 73.94 71.64 71.44 72.07 70.57 69.62 69.62 68.36 66.91 67.26 68.44 69.13 72.61 72.39 72.17 71.84 67.97 64.14
72.40 72.18 71.89 72.04 72.14 71.31 71.97 71.94 73.22 72.39 73.29 73.59 73.45 72.96 73.31 73.36 73.11 72.92 73.05 72.37 72.15 72.59 72.47 71.64 71.46 72.59 72.86 70.93 69.66 70.84 70.70 71.65 69.32 67.69 66.55 70.23 70.90 70.26 70.65 71.48 68.77 65.28 64.21
72.46 72.46 71.82 72.19 72.62 72.86 73.22 72.93 73.04 73.94 73.75 73.83 73.70 73.63 74.20 74.15 73.93 73.37 73.29 72.58 71.88 72.38 72.75 72.58 72.52 71.35 72.78 70.85 71.05 70.21 70.67 69.98 69.09 68.97 68.36 68.08 69.04 70.33 70.41 68.57 67.00 65.36 60.27
71.84 71.97 71.99 72.57 73.18 72.70 72.91 72.96 73.06 73.33 73.29 73.42 73.68 74.14 74.03 74.31 73.82 69.13 70.79 72.54 72.13 72.38 72.44 73.07 71.78 71.88 71.10 69.82 70.44 70.19 70.36 69.35 69.04 68.03 67.07 67.38 67.87 67.11 66.79 70.29 69.72 69.86 65.80
71.72 72.14 72.64 72.76 72.75 72.33 72.82 72.73 73.05 73.10 73.47 73.90 73.36 73.06 73.03 73.58 66.45 67.16 68.35 71.48 72.26 71.37 71.06 71.58 72.36 72.31 71.60 70.60 69.17 69.18 68.57 68.09 67.60 67.63 67.58 66.51 66.69 68.19 68.53 69.05 68.17 67.54 66.99
71.97 72.60 72.98 72.78 72.73 72.86 72.50 72.11 71.93 72.06 73.38 72.98 73.03 72.74 71.66 62.99 61.62 62.99 65.59 68.99 71.31 71.19 71.00 72.09 72.27 72.64 69.43 70.95 68.03 67.90 68.21 68.33 68.16 68.05 68.01 67.74 66.61 65.02 67.11 68.46 68.81 68.37 66.97
71.91 71.44 72.33 73.13 72.59 73.00 73.12 72.47 71.91 72.69 72.39 71.34 71.40 71.58 65.62 62.65 63.31 62.70 63.92 66.48 68.70 70.70 68.98 68.17 67.56 62.92 60.81 62.78 67.56 69.51 69.56 66.08 65.03 66.60 65.01 63.06 61.97 62.30 64.06 66.15 66.24 67.92 65.42
71.34 71.93 72.65 72.99 71.94 70.60 68.90 70.53 71.42 71.89 70.52 68.75 69.00 67.49 64.75 63.39 61.48 61.24 64.28 68.50 70.01 63.84 60.41 60.64 61.32 58.71 58.24 59.34 65.57 67.07 67.94 61.22 60.38 60.41 60.58 59.83 59.68 59.20 59.55 61.01 60.27 62.58 63.76
70.07 71.14 71.29 70.31 69.54 70.80 69.90 70.13 69.54 68.23 66.99 65.75 64.46 64.78 62.46 60.94 57.50 58.79 61.90 68.09 67.26 62.78 62.04 59.05 57.54 56.71 56.81 58.11 63.59 63.81 65.31 63.80 61.07 61.29 61.53 58.18 57.37 57.05 57.82 55.44 56.28 59.31 59.69
69.11 70.12 70.52 70.69 70.31 69.07 67.89 69.02 67.15 65.23 64.37 62.45 60.96 59.71 58.89 58.33 57.10 55.63 58.25 64.08 65.38 62.56 59.76 57.10 54.74 54.10 53.38 54.25 57.23 60.09 61.00 63.02 62.27 58.33 56.85 56.20 56.30 55.50 55.10 54.52 54.12 54.84 55.97
68.37 68.62 67.92 68.01 68.03 66.70 65.09 63.96 62.72 61.11 59.69 58.87 58.31 57.64 57.66 57.56 55.61 54.93 55.26 57.22 60.86 59.58 56.06 54.55 53.30 51.47 50.99 52.28 55.60 55.42 56.38 58.78 57.60 56.34 55.38 53.44 53.41 54.83 56.09 55.08 54.83 55.06 54.85
67.08 67.21 66.58 66.25 65.48 64.72 63.51 62.37 61.01 60.34 59.07 58.15 57.64 57.12 57.36 57.89 57.38 54.38 54.14 56.24 56.99 57.12 56.68 55.14 53.79 53.09 52.25 54.10 53.99 55.68 57.56 56.66 55.83 56.35 55.03 53.75 54.00 54.12 53.66 54.84 55.50 55.24 54.75
65.09 65.14 64.96 64.10 63.76 63.20 63.05 61.91 60.94 59.62 58.83 57.80 57.10 57.34 57.91 59.11 58.91 58.44 57.34 56.77 56.36 55.92 56.62 55.52 54.89 54.59 55.07 54.83 55.62 55.03 54.20 54.46 54.30 53.30 52.49 51.70 51.76 51.93 50.07 50.39 50.73 53.29 52.09
62.14 61.42 60.84 59.24 57.27 53.62 49.28 49.86 55.08 48.12 52.92 59.05 58.61 57.64 56.50 53.88 47.80 45.49 49.23 56.30 56.84 56.94 56.06 56.04 56.32 55.90 56.28 56.23 55.12 55.00 53.34 53.05 52.03 51.32 50.99 50.66 48.71 48.72 48.36 48.93 48.02 48.82 48.82
60.51 60.05 59.07 57.33 56.78 55.97 53.50 50.32 45.85 45.06 44.50 43.69 47.01 50.76 43.77 45.36 43.58 42.53 45.06 48.00 48.71 49.65 55.84 56.56 54.74 54.51 53.92 54.14 53.04 54.02 54.00 55.02 52.72 52.05 51.46 51.23 50.56 49.68 50.09 49.98 48.69 48.55 48.02
60.61 60.27 59.71 59.39 59.61 57.75 56.72 55.62 52.62 48.33 46.93 44.46 42.87 43.81 44.49 42.98 42.94 42.18 43.26 46.27 48.25 48.72 52.19 54.14 54.41 53.65 53.43 52.49 51.90 51.76 50.77 49.74 51.49 49.68 48.62 47.60 48.08 47.55 46.08 48.17 47.69 48.38 48.27
62.06 58.43 60.91 60.18 59.55 59.13 58.43 57.17 54.95 52.18 49.35 47.77 47.25 44.90 43.04 44.03 43.69 43.49 43.15 45.16 51.26 49.76 49.61 52.63 53.13 53.34 52.28 51.97 50.66 50.08 49.93 48.39 47.78 47.45 47.66 47.88 47.71 47.50 47.57 44.73 43.60 43.32 44.41
60.40 59.07 58.64 58.06 57.98 57.83 58.84 58.04 57.15 56.90 54.97 52.24 49.28 47.31 43.07 42.37 42.30 40.80 40.84 48.21 51.13 50.07 51.97 52.24 52.20 52.10 52.04 51.51 49.68 49.07 46.38 46.11 47.56 46.87 45.24 44.30 43.99 44.67 43.60 42.90 42.44 43.34 43.72
53.50 56.07 56.22 53.65 53.07 52.86 53.05 52.89 52.31 54.31 55.58 54.22 52.08 51.38 48.01 44.19 42.75 43.33 42.95 45.25 47.54 49.16 49.36 52.55 52.30 53.71 52.72 51.42 49.88 48.85 46.77 45.48 45.67 44.66 43.80 43.15 42.21 42.35 41.54 41.21 41.35 40.97 41.48
53.12 53.10 54.28 54.71 54.48 53.53 53.92 53.73 53.19 53.17 52.07 52.31 52.55 50.37 46.33 45.39 48.09 50.37 48.47 47.78 49.86 51.34 52.39 52.65 52.60 52.66 51.60 50.82 49.82 48.27 46.73 46.83 45.21 43.35 42.99 42.26 41.95 41.60 42.27 41.81 41.42 42.02 41.58
52.87 51.68 52.13 53.11 52.76 52.59 52.08 51.93 51.93 51.79 51.72 51.89 51.07 48.29 44.88 48.71 49.88 49.42 49.01 52.27 52.66 51.88 53.50 53.28 51.95 51.44 51.61 50.97 50.11 49.83 48.63 47.27 45.77 45.00 44.09 43.70 43.33 42.53 42.19 41.66 41.86 41.80 41.77
56.19 54.00 54.17 54.29 53.51 52.52 51.17 52.13 51.71 51.69 51.74 52.09 51.63 48.61 47.63 49.40 50.24 50.44 50.06 50.48 52.87 51.96 52.57 53.65 52.41 52.10 51.64 50.49 50.41 48.95 46.53 45.60 45.82 45.01 43.84 43.03 42.65 42.31 43.06 42.41 42.62 41.46 40.26
56.09 56.66 54.90 56.57 54.91 53.63 53.95 53.50 53.45 52.78 52.79 53.25 52.87 51.50 50.13 50.32 51.40 52.52 51.71 52.30 53.01 53.99 54.07 53.17 52.29 51.00 50.18 49.01 47.55 46.23 46.74 45.32 45.10 44.88 44.66 44.23 43.22 41.44 41.52 42.20 43.22 43.27 41.24
55.43 54.81 55.11 55.91 53.73 51.61 52.01 49.99 49.40 49.22 50.62 51.31 51.19 51.10 51.55 52.24 51.93 51.92 50.88 51.46 54.39 54.03 52.04 52.63 51.49 52.10 49.14 45.04 43.43 41.51 37.57 38.98 43.99 42.98 45.39 45.01 44.37 43.75 43.17 43.30 43.69 43.20 44.39
54.14 51.90 49.80 50.47 50.45 49.06 48.68 48.23 48.30 47.79 47.81 48.74 49.09 49.22 49.23 49.14 49.62 51.65 52.66 52.95 49.88 51.44 52.72 51.66 51.04 51.24 47.91 45.97 43.27 37.44 33.05 38.07 39.06 36.76 43.11 43.79 43.17 43.07 42.84 43.40 43.37 42.76 42.78
MSLP
1014.81 1015.36 1015.78 1016.24 1016.59 1017.05 1017.33 1017.48 1017.92 1018.24 1018.43 1018.67 1018.79 1018.85 1019.05 1019.05 1019.00 1019.27 1019.55 1019.88 1020.05 1020.01 1019.86 1019.66 1019.52 1019.48 1019.63 1019.89 1020.05 1020.06 1020.32 1019.81 1019.88 1019.37 1018.68 1018.38 1018.29 1018.05 1018.37 1018.77 1019.34 1019.50 1019.73
1014.21 1014.68 1015.30 1015.68 1016.10 1016.47 1016.85 1017.18 1017.48 1017.92 1018.01 1018.41 1018.60 1018.85 1019.03 1019.18 1019.28 1019.39 1019.55 1019.57 1019.77 1019.77 1019.47 1019.37 1019.41 1019.40 1019.55 1019.54 1019.63 1019.71 1019.81 1019.59 1019.65 1019.55 1019.02 1018.60 1018.55 1018.02 1017.62 1018.89 1019.18 1019.60 1019.98
1013.52 1014.04 1014.71 1015.18 1015.55 1015.97 1016.38 1016.74 1017.07 1017.37 1017.73 1017.90 1018.27 1018.69 1018.92 1019.00 1019.15 1019.20 1019.24 1019.26 1019.18 1019.14 1019.19 1019.33 1019.31 1019.19 1019.14 1019.11 1019.14 1019.23 1019.20 1019.13 1019.12 1019.07 1019.11 1018.79 1018.54 1018.51 1018.63 1019.19 1019.56 1019.98 1020.42
1012.63 1013.29 1014.11 1014.70 1015.08 1015.41 1015.80 1016.28 1016.76 1017.03 1017.33 1017.58 1017.85 1018.18 1018.43 1018.51 1018.51 1018.68 1018.72 1018.74 1018.68 1018.74 1018.90 1019.06 1019.20 1019.17 1018.96 1018.98 1018.89 1018.88 1018.88 1019.11 1019.13 1019.18 1019.17 1019.07 1019.14 1018.89 1019.09 1019.60 1020.24 1020.47 1020.51
1012.26 1012.59 1013.12 1013.87 1014.48 1014.94 1015.36 1015.71 1016.11 1016.49 1016.76 1017.10 1017.44 1017.71 1017.91 1018.13 1018.35 1018.46 1018.40 1018.35 1018.37 1018.51 1018.60 1018.71 1018.97 1018.92 1019.04 1018.97 1018.89 1018.85 1018.96 1019.24 1019.37 1019.30 1019.25 1019.23 1019.46 1019.45 1019.53 1019.42 1019.36 1019.65 1020.07
1012.20 1012.25 1012.45 1013.15 1013.88 1014.55 1015.00 1015.36 1015.68 1016.14 1016.53 1016.84 1017.11 1017.40 1017.76 1018.03 1018.30 1018.41 1018.43 1018.25 1018.23 1018.42 1018.49 1018.43 1018.46 1018.62 1018.66 1018.76 1018.80 1018.86 1018.98 1019.15 1019.32 1019.46 1019.51 1019.41 1019.41 1019.43 1019.19 1019.18 1019.33 1019.53 1019.81
1012.52 1012.48 1012.37 1012.75 1013.50 1014.07 1014.51 1015.00 1015.51 1015.89 1016.17 1016.58 1016.91 1017.17 1017.67 1018.23 1018.46 1018.48 1018.48 1018.50 1018.47 1018.43 1018.35 1018.40 1018.45 1018.75 1018.79 1018.81 1018.87 1018.99 1019.08 1019.18 1019.36 1019.46 1019.82 1019.63 1019.48 1019.54 1019.41 1019.22 1019.00 1019.09 1019.35
1012.61 1012.08 1012.41 1012.90 1013.42 1013.69 1014.11 1014.68 1015.25 1015.62 1015.95 1016.45 1016.85 1017.04 1017.76 1018.56 1018.64 1018.60 1018.61 1018.63 1018.55 1018.63 1018.88 1019.16 1019.45 1019.67 1019.49 1019.35 1019.13 1018.96 1019.16 1019.49 1019.61 1019.58 1019.68 1019.74 1019.66 1019.49 1019.28 1019.06 1019.06 1019.05 1019.43
1011.52 1011.08 1011.69 1012.59 1013.13 1013.52 1014.24 1014.67 1014.89 1015.47 1016.16 1016.87 1017.14 1017.54 1018.09 1018.71 1018.86 1018.59 1018.55 1018.46 1018.39 1019.19 1019.34 1019.44 1019.75 1020.02 1019.86 1019.57 1019.40 1019.43 1019.50 1019.69 1019.48 1019.56 1019.98 1020.12 1019.89 1019.53 1019.21 1018.99 1019.36 1019.29 1019.64
1012.23 1010.64 1011.24 1012.13 1013.30 1013.65 1014.35 1014.90 1015.41 1015.99 1016.79 1017.34 1017.71 1018.02 1018.56 1018.95 1018.85 1018.63 1018.63 1018.60 1018.98 1019.52 1019.68 1020.00 1020.11 1020.14 1019.95 1019.78 1019.57 1019.65 1019.75 1019.82 1019.81 1020.02 1020.25 1020.35 1020.23 1020.06 1019.85 1019.77 1019.81 1019.96 1020.07
1011.96 1010.89 1011.15 1012.10 1013.44 1014.14 1014.70 1015.29 1016.16 1016.84 1017.30 1017.81 1018.34 1018.81 1019.18 1019.25 1019.23 1018.83 1018.77 1018.87 1019.16 1019.64 1020.06 1020.55 1020.76 1020.58 1020.45 1020.25 1019.91 1019.98 1020.09 1020.02 1019.94 1020.07 1020.54 1020.82 1020.80 1020.76 1020.50 1020.43 1020.27 1020.08 1020.54
1012.24 1009.93 1011.60 1013.29 1014.11 1014.82 1015.55 1016.34 1016.87 1017.30 1017.97 1018.46 1018.84 1019.29 1019.59 1019.51 1019.48 1019.32 1019.20 1019.31 1019.58 1019.93 1020.57 1020.92 1020.93 1020.76 1020.55 1020.56 1020.57 1020.50 1020.30 1020.40 1020.57 1020.71 1021.07 1021.41 1021.40 1021.39 1021.29 1021.08 1020.96 1020.90 1020.75
1011.99 1013.77 1014.19 1014.39 1015.19 1015.59 1016.30 1017.15 1017.57 1017.79 1018.59 1018.98 1019.32 1019.65 1020.09 1020.27 1019.97 1019.85 1019.86 1019.98 1020.27 1020.50 1020.64 1020.99 1021.10 1020.94 1021.02 1020.98 1020.83 1020.69 1020.61 1020.72 1020.93 1021.31 1021.41 1021.59 1021.61 1021.55 1021.31 1021.20 1021.08 1021.34 1021.43
1014.43 1014.49 1015.17 1015.37 1016.45 1016.45 1016.68 1017.77 1017.48 1018.55 1019.14 1019.02 1019.60 1020.07 1020.37 1020.62 1020.63 1020.44 1020.30 1020.62 1020.84 1020.86 1020.91 1021.10 1021.06 1021.05 1021.13 1021.23 1021.16 1021.04 1021.01 1021.14 1021.21 1021.61 1021.75 1021.79 1021.75 1021.71 1021.53 1021.45 1021.43 1021.33 1021.39
1015.18 1015.67 1016.16 1016.50 1016.94 1017.48 1018.28 1018.77 1018.99 1019.23 1019.10 1019.32 1019.84 1020.27 1020.75 1021.18 1021.48 1021.15 1020.89 1020.88 1020.98 1021.08 1021.32 1021.44 1021.63 1021.63 1021.57 1021.49 1021.36 1021.44 1021.38 1021.47 1021.51 1021.65 1021.75 1021.79 1021.69 1021.85 1021.81 1021.57 1021.59 1021.55 1021.53
1015.39 1015.94 1016.63 1016.85 1017.38 1018.10 1018.63 1019.20 1019.48 1019.59 1019.65 1019.70 1019.97 1020.21 1021.00 1021.09 1021.24 1021.49 1021.27 1021.20 1021.13 1021.34 1021.53 1021.71 1021.81 1021.90 1021.90 1021.86 1021.79 1021.85 1021.77 1021.69 1021.65 1021.79 1021.79 1021.94 1022.06 1021.98 1021.89 1021.78 1021.68 1021.66 1021.86
1015.97 1016.41 1016.87 1017.12 1017.53 1017.95 1018.39 1018.72 1019.46 1020.08 1020.25 1020.36 1020.58 1020.68 1020.94 1021.36 1021.65 1021.79 1021.63 1021.65 1021.48 1021.75 1021.61 1021.37 1021.63 1021.83 1021.95 1022.00 1021.94 1021.91 1022.15 1022.00 1022.09 1022.03 1022.00 1021.93 1022.08 1022.03 1021.97 1022.04 1022.21 1022.18 1022.32
1016.08 1016.27 1016.91 1017.13 1017.34 1017.75 1018.30 1018.87 1019.40 1019.90 1020.42 1020.85 1021.14 1021.34 1021.36 1021.53 1021.75 1021.81 1021.76 1021.77 1022.05 1021.94 1021.54 1021.28 1021.47 1021.67 1021.81 1022.03 1022.07 1022.09 1022.13 1022.14 1022.19 1022.18 1022.32 1022.28 1022.34 1022.43 1022.36 1022.47 1022.62 1022.79 1022.86
1016.25 1016.68 1016.66 1016.88 1017.10 1017.40 1017.96 1018.78 1019.27 1019.66 1019.97 1020.33 1021.02 1021.42 1021.69 1021.86 1021.89 1022.01 1021.95 1021.78 1021.82 1021.52 1021.27 1021.14 1021.16 1021.36 1021.53 1021.91 1022.19 1022.27 1022.37 1022.52 1022.51 1022.41 1022.85 1022.82 1022.88 1022.94 1023.27 1023.27 1023.23 1023.06 1023.05
1016.24 1016.37 1016.46 1016.87 1017.19 1017.26 1017.69 1018.47 1018.74 1019.02 1019.40 1019.93 1020.56 1020.76 1021.27 1021.64 1021.79 1021.71 1021.69 1021.45 1021.26 1020.97 1020.60 1020.87 1021.11 1021.15 1021.44 1021.90 1022.21 1022.18 1022.48 1022.63 1022.65 1022.87 1022.92 1023.15 1023.26 1023.18 1023.54 1023.55 1023.37 1023.23 1023.31
1016.32 1016.56 1016.72 1016.85 1017.27 1017.44 1017.60 1018.28 1018.40 1018.32 1018.73 1019.26 1019.59 1019.63 1019.86 1020.48 1020.80 1020.77 1020.85 1020.94 1020.79 1020.65 1020.68 1021.07 1021.13 1021.31 1021.56 1021.87 1021.98 1022.26 1022.51 1022.64 1022.58 1022.79 1023.08 1023.12 1023.25 1023.57 1023.39 1023.32 1023.31 1023.25 1023.36
1016.17 1016.37 1016.76 1017.19 1017.30 1017.64 1017.99 1018.20 1018.29 1018.32 1018.53 1018.90 1019.22 1019.51 1019.86 1020.11 1019.74 1019.73 1019.93 1019.93 1020.15 1019.94 1020.03 1020.55 1020.78 1020.90 1021.14 1021.41 1021.77 1022.12 1022.15 1022.14 1022.19 1022.68 1022.95 1023.06 1023.43 1023.43 1023.48 1023.31 1023.19 1023.28 1023.45
1016.51 1016.51 1016.76 1016.99 1017.31 1017.73 1018.00 1018.41 1018.58 1018.44 1018.53 1018.70 1019.19 1019.63 1019.79 1019.75 1019.56 1019.63 1019.42 1018.99 1019.12 1019.34 1019.44 1019.73 1020.08 1020.40 1020.61 1021.00 1021.37 1021.60 1021.60 1021.68 1022.05 1022.40 1022.89 1022.90 1023.00 1023.26 1023.26 1023.21 1023.09 1023.30 1023.57
1016.33 1016.30 1016.52 1017.03 1017.39 1017.97 1018.47 1018.73 1018.77 1018.68 1018.80 1018.74 1018.78 1018.96 1019.22 1019.48 1019.49 1019.48 1019.31 1018.76 1018.92 1018.82 1018.94 1019.13 1019.60 1020.13 1020.48 1020.71 1021.05 1021.10 1021.33 1021.57 1022.08 1022.29 1022.45 1022.88 1023.03 1023.07 1023.00 1022.92 1023.01 1023.09 1023.35
1016.57 1016.68 1017.03 1017.24 1017.90 1018.24 1018.55 1018.95 1019.19 1019.50 1019.52 1019.32 1019.36 1019.41 1019.36 1019.32 1019.37 1019.27 1018.88 1018.74 1018.57 1018.83 1018.95 1018.92 1019.24 1019.45 1020.45 1021.11 1021.25 1021.54 1021.62 1021.95 1022.30 1022.32 1022.53 1022.81 1023.00 1023.05 1023.05 1023.05 1023.08 1023.17 1023.21
1016.69 1017.01 1017.35 1017.70 1018.21 1018.63 1018.93 1019.40 1019.88 1020.04 1020.17 1020.10 1020.06 1020.10 1020.04 1019.80 1019.50 1019.12 1019.04 1018.76 1018.68 1018.78 1018.74 1018.76 1019.01 1019.15 1020.03 1020.91 1021.17 1021.82 1022.06 1022.07 1022.40 1022.60 1022.73 1022.84 1023.05 1023.12 1023.14 1023.11 1023.13 1023.29 1023.30
Wind_Speed
10 8 8 7 7 6 5 5 6 7 6 5 5 5 4 6 5 3 3 3 4 5 5 5 4 3 2 3 2 0 2 2 1 3 1 1 3 2 5 7 5 5 5
12 11 8 9 8 7 7 7 6 7 6 7 6 4 5 3 4 6 6 4 4 4 6 5 5 4 4 3 1 1 2 2 2 3 2 3 2 2 2 8 4 5 5
13 14 11 10 8 7 7 7 6 7 7 7 7 7 6 6 5 4 5 6 5 4 4 4 6 4 4 3 1 0 1 1 1 1 2 1 2 3 5 5 5 5 5
13 13 14 12 10 8 8 7 7 7 7 6 5 6 5 5 4 5 5 6 6 5 3 2 3 3 4 3 3 1 2 1 2 1 1 2 1 1 1 3 2 1 4
12 12 13 10 9 8 7 7 7 6 6 6 6 6 6 5 0 2 3 5 5 4 4 3 2 1 3 4 2 3 2 1 1 1 2 1 1 2 2 2 2 5 4
12 12 11 11 9 7 7 7 6 6 6 6 6 6 6 3 6 2 1 3 3 4 4 4 1 3 4 4 3 2 2 1 2 2 2 1 2 1 2 3 3 2 3
10 9 11 11 10 8 8 7 6 6 5 6 6 6 4 5 4 3 4 2 2 2 2 3 2 4 6 4 1 1 5 6 4 2 2 2 2 1 2 4 2 2 2
11 8 8 9 9 8 8 7 6 5 6 5 5 4 7 5 3 3 4 3 2 3 7 6 7 6 5 5 4 4 5 4 2 3 2 4 4 2 1 2 2 3 3
14 12 11 10 8 7 6 5 4 4 3 6 6 6 8 5 5 7 5 3 4 7 6 7 6 5 6 6 3 5 3 3 4 7 11 13 12 14 9 1 4 3 2
8 9 8 7 6 7 6 6 6 8 8 6 8 7 9 6 7 6 4 3 6 5 5 6 10 5 6 8 5 3 3 3 4 3 3 8 8 10 13 8 3 4 2
16 3 10 11 11 9 9 9 8 8 7 7 8 7 6 5 6 10 10 5 3 4 4 3 3 8 8 8 7 4 2 3 6 6 5 4 4 5 5 6 6 4 4
7 16 12 10 8 8 10 8 7 8 7 6 6 5 3 4 6 9 11 10 6 4 4 3 3 7 10 10 6 6 9 6 4 5 4 3 3 3 3 3 4 4 3
12 12 6 10 7 8 10 7 6 7 5 5 5 5 3 3 3 9 11 11 9 4 3 4 3 4 2 5 7 8 6 4 4 3 3 1 1 2 1 1 2 2 2
11 11 8 9 6 8 7 4 7 6 5 5 5 4 3 2 2 3 4 5 7 5 5 3 4 4 4 3 3 5 4 4 3 3 2 2 0 1 2 1 1 0 1
10 8 7 8 7 7 8 5 4 4 3 4 4 3 4 3 2 2 3 3 1 4 4 2 2 3 3 2 3 4 3 3 3 1 1 1 1 2 2 1 1 1 2
9 6 4 5 5 5 6 6 12 10 8 7 7 7 3 6 6 3 5 6 7 6 0 2 1 1 1 1 2 2 2 2 1 1 1 1 2 1 1 2 0 2 2
8 7 6 5 5 6 5 5 6 5 11 12 10 8 6 8 6 5 5 4 4 2 1 1 3 3 2 1 2 2 1 0 0 2 2 2 1 0 1 3 3 4 4
5 9 5 5 5 4 4 5 5 5 4 3 3 3 6 7 5 4 4 2 1 1 1 2 3 3 2 1 0 0 0 2 2 2 2 3 4 3 3 4 4 2 3
4 3 5 4 5 6 5 5 5 5 5 5 3 1 2 1 1 2 3 1 1 2 2 2 2 3 3 3 3 3 3 2 3 4 3 4 4 4 4 3 3 4 4
5 9 6 5 3 2 4 5 5 6 5 5 4 4 4 4 2 3 3 3 4 4 2 4 3 2 4 4 2 3 2 1 2 3 3 3 2 3 2 1 1 2 1
4 4 4 3 4 4 4 3 3 4 4 5 6 7 11 5 5 4 5 5 4 2 5 5 5 4 4 4 3 2 2 2 3 3 2 2 1 1 2 1 0 1 1
4 3 3 4 4 5 4 3 4 3 3 4 4 2 8 4 3 2 4 5 6 6 5 5 5 5 5 5 4 4 3 3 4 3 4 3 3 2 2 1 2 2 2
1 4 5 4 5 4 2 0 1 2 0 4 5 5 5 5 4 5 6 4 5 6 5 6 6 4 4 5 5 4 3 2 3 4 3 2 3 3 3 3 4 1 2
4 3 5 5 5 4 2 2 2 4 5 3 1 3 3 3 2 2 2 2 4 5 5 5 5 6 6 5 4 3 5 5 4 4 6 3 1 1 2 3 2 5 3
3 4 4 5 5 5 6 6 6 6 5 5 6 5 5 5 5 1 3 4 4 3 4 5 5 8 9 10 8 8 8 11 6 6 4 4 4 3 2 2 3 3 3
5 5 5 5 5 6 6 6 6 6 6 5 5 6 6 5 6 5 4 1 2 3 5 4 6 12 14 9 11 9 7 10 6 5 3 3 1 2 3 0 4 2 2
Wind_Direction
177 169 170 178 190 180 190 215 151 149 172 184 196 156 174 221 216 179 205 236 248 258 274 285 281 264 270 280 273 41 84 105 112 293 197 340 314 229 117 105 123 106 98
187 178 186 183 179 186 191 198 189 165 169 184 174 175 206 224 198 182 207 236 242 251 248 268 278 276 245 234 284 49 124 166 132 282 303 350 269 314 133 127 129 86 86
181 180 189 192 183 188 192 201 202 195 188 190 180 182 198 224 223 215 218 230 245 264 280 293 286 291 258 230 253 267 100 2 54 98 308 318 344 43 25 70 94 104 95
176 169 183 187 189 186 193 197 197 195 185 188 180 185 200 234 232 234 239 224 234 253 262 293 31 23 358 331 275 172 90 63 13 70 314 331 7 342 89 114 104 331 150
182 172 173 179 178 186 182 188 197 191 191 190 191 199 212 222 103 44 329 243 196 230 263 290 154 107 48 68 56 352 18 311 306 315 311 352 43 11 323 174 113 228 199
192 184 172 171 173 177 177 179 181 194 193 188 198 200 217 141 139 172 331 305 183 219 246 259 200 140 101 103 101 142 133 49 294 311 309 242 242 205 231 219 208 192 223
198 188 172 166 167 174 179 181 194 195 188 194 206 205 158 111 90 61 8 303 333 278 308 336 319 49 32 21 130 226 117 102 88 130 284 13 34 25 305 302 270 238 230
226 173 160 164 171 170 174 174 177 181 195 208 223 171 121 96 51 7 317 241 234 47 70 55 67 57 28 10 352 19 72 80 51 63 93 79 62 355 315 244 270 305 85
220 166 158 165 177 163 187 180 163 155 90 76 64 81 105 83 17 13 338 42 47 86 75 57 81 68 7 3 38 21 70 70 60 90 98 88 59 50 35 79 19 36 89
287 163 143 136 146 126 124 101 80 85 93 94 80 74 95 84 37 30 26 68 86 105 87 70 51 56 44 27 67 55 89 173 160 132 107 58 47 52 45 49 18 57 57
354 147 102 89 83 84 83 80 94 90 91 85 86 66 68 56 38 43 41 69 78 99 84 62 45 41 42 37 58 58 348 326 71 91 89 72 55 45 46 40 35 65 88
90 42 42 72 80 90 85 76 86 95 89 83 91 81 57 64 48 58 65 70 74 96 95 96 102 64 62 45 44 55 56 65 82 83 78 63 49 34 15 43 56 52 42
81 116 87 85 88 100 104 101 106 90 101 105 93 79 47 21 49 60 66 72 66 86 95 114 80 34 29 44 40 49 62 90 102 83 86 75 122 236 308 358 87 58 56
104 96 96 90 86 79 94 116 94 101 111 97 87 86 76 67 73 58 63 69 81 80 101 57 51 69 81 134 67 50 60 65 87 89 94 127 351 336 356 339 354 164 106
93 91 96 98 101 85 59 38 77 53 57 101 125 124 125 113 6 42 64 75 30 120 102 68 39 27 50 44 44 50 52 42 69 101 132 134 57 5 327 303 257 293 177
110 111 112 109 105 111 114 99 55 67 58 71 100 118 80 93 134 89 66 73 73 53 107 150 113 114 66 54 52 59 32 71 62 110 325 19 315 231 329 321 291 56 87
131 139 131 131 127 132 125 115 108 55 60 53 60 84 103 129 96 90 75 47 45 29 122 124 145 135 132 101 97 96 119 288 37 85 77 91 89 105 94 30 41 55 40
141 134 143 155 139 127 128 128 130 131 127 108 37 111 121 131 118 85 42 6 310 353 233 125 136 148 129 140 67 162 64 36 45 24 8 47 38 21 42 81 61 78 62
142 165 142 137 151 157 140 150 152 158 153 139 114 43 202 147 40 28 15 195 240 268 246 201 166 171 163 142 135 100 96 80 72 60 58 58 44 78 63 54 63 74 81
92 66 109 114 117 134 124 149 146 152 153 149 164 184 167 153 207 218 220 226 236 255 294 195 199 169 134 141 135 119 113 81 73 82 84 71 40 62 108 125 73 65 42
91 80 100 72 65 60 52 111 166 151 169 169 195 185 177 168 201 204 200 208 228 202 99 113 112 116 127 134 124 138 168 201 174 147 154 140 136 359 311 283 252 236 172
134 155 111 131 113 80 79 61 35 36 38 95 154 158 193 243 204 249 202 196 195 171 146 150 152 156 169 169 171 196 198 248 191 172 177 167 200 243 239 244 252 238 230
26 229 153 130 129 136 120 215 282 287 204 98 146 160 187 224 233 240 245 234 177 171 167 158 154 152 143 143 166 156 120 49 185 155 148 185 197 219 217 231 241 92 110
348 56 153 141 154 142 151 176 15 18 17 8 12 147 187 245 260 112 149 345 171 174 161 144 151 163 139 131 93 82 104 110 104 118 103 62 125 252 18 338 134 138 134
58 37 65 106 88 71 65 59 57 49 37 37 35 29 13 15 352 286 116 97 126 179 176 165 160 142 132 121 111 106 100 89 86 89 78 98 81 58 44 76 95 127 138
54 78 80 82 75 72 68 61 54 48 34 25 19 14 359 355 348 351 347 297 142 186 200 176 170 134 133 128 125 134 123 115 101 70 72 84 89 25 42 215 98 112 87